Location: Calvatone
(45.1167°N, 10.4333°E)
Time: 12:44:46
(UTC+00:00)

Cosmos 2219 - Pass Details

Date: 28 January 2023
Orbit: 835 x 858 km, 71.1° (Epoch: 25 March)

Event Time Altitude Azimuth Distance (km) Brightness Sun altitude
Rises 16:40:29 0° 334° (NNW) 3,396 6.4 -4.2°
Reaches altitude 10° 16:42:56 10° 336° (NNW) 2,456 5.7 -4.6°
Maximum altitude 16:48:35 81° 63° (ENE) 851 3.2 -5.5°
Drops below altitude 10° 16:54:11 10° 152° (SSE) 2,440 5.5 -6.5°
Sets 16:56:37 0° 153° (SSE) 3,372 6.2 -6.9°
